Temp
-1 -2 -2 -2 -2 -2 -1 -0 1 1 1 2 1 1 0 2 3 3 3 5 6 6 6 6 6 7 8 7 8 9 10 11 11 12 11 11 11 11 10 10 10 9 9
-1 -2 -2 -2 -3 -3 -3 -2 -1 -0 0 1 1 0 0 0 1 1 2 2 3 5 5 4 4 5 6 7 7 8 7 7 9 9 9 10 10 9 9 10 9 8 8
-0 -1 -2 -3 -4 -4 -4 -4 -2 -1 -1 -0 -0 -0 -1 -1 -0 -0 0 0 1 2 3 3 3 3 4 4 4 5 6 5 5 7 6 8 9 8 7 7 7 7 7
0 -1 -2 -3 -4 -6 -5 -5 -4 -3 -2 -2 -1 -1 -1 -2 -4 -3 -2 -1 -0 -0 1 1 2 2 2 3 2 3 4 4 4 4 4 4 4 5 7 6 5 5 5
0 -1 -2 -3 -5 -6 -6 -6 -5 -4 -4 -3 -2 -1 -2 -3 -4 -3 -3 -3 -2 -1 -0 -0 0 1 0 1 1 2 2 2 2 2 3 3 3 3 3 5 3 5 4
-0 -1 -3 -5 -6 -7 -7 -7 -6 -6 -5 -4 -4 -3 -4 -4 -4 -4 -4 -4 -3 -3 -2 -1 -1 -1 -1 -0 -0 0 0 0 0 0 0 -0 -1 -1 -0 0 0 1 3
-3 -5 -5 -6 -7 -7 -7 -7 -7 -7 -6 -5 -5 -5 -5 -4 -5 -5 -5 -5 -4 -4 -4 -3 -2 -2 -2 -2 -1 -1 -1 -1 -1 -1 -2 -2 -2 -1 -1 -1 -2 -1 2
-4 -5 -6 -6 -6 -7 -7 -7 -7 -7 -6 -6 -6 -6 -5 -5 -5 -5 -5 -6 -6 -5 -5 -4 -3 -3 -3 -3 -3 -2 -3 -3 -2 -3 -3 -3 -3 -3 -3 -3 -3 -3 -1
-5 -6 -6 -6 -7 -7 -8 -8 -8 -8 -7 -7 -7 -6 -6 -6 -6 -6 -5 -6 -6 -6 -5 -4 -4 -4 -4 -4 -4 -4 -4 -4 -4 -4 -4 -4 -4 -4 -4 -4 -4 -4 -4
-5 -6 -7 -7 -7 -7 -8 -8 -8 -8 -8 -7 -7 -7 -7 -7 -7 -6 -6 -6 -6 -6 -5 -5 -4 -4 -5 -5 -4 -5 -5 -5 -5 -5 -5 -5 -5 -5 -5 -5 -5 -5 -5
-6 -6 -7 -8 -8 -8 -8 -9 -9 -9 -9 -8 -8 -8 -8 -8 -7 -7 -7 -7 -6 -6 -6 -6 -5 -5 -5 -6 -5 -6 -6 -6 -6 -6 -6 -6 -6 -6 -6 -6 -6 -6 -6
-6 -7 -8 -9 -9 -9 -9 -10 -10 -9 -10 -9 -9 -9 -9 -8 -8 -8 -8 -8 -7 -7 -7 -7 -6 -6 -6 -7 -7 -7 -7 -7 -7 -8 -7 -7 -7 -7 -7 -7 -7 -7 -7
-7 -9 -9 -10 -10 -10 -10 -11 -11 -11 -10 -10 -9 -10 -9 -9 -9 -9 -9 -8 -8 -8 -8 -7 -7 -7 -7 -7 -7 -8 -8 -8 -9 -9 -9 -9 -8 -8 -8 -8 -8 -8 -8
-8 -10 -11 -11 -11 -11 -11 -11 -12 -11 -11 -10 -10 -10 -10 -9 -9 -9 -9 -8 -8 -8 -8 -8 -8 -8 -8 -8 -8 -9 -9 -9 -9 -9 -10 -10 -9 -9 -9 -9 -9 -9 -9
-9 -10 -12 -13 -13 -12 -12 -12 -12 -12 -11 -10 -10 -10 -10 -10 -10 -9 -9 -9 -9 -9 -9 -9 -9 -9 -8 -8 -10 -10 -10 -10 -10 -10 -10 -10 -10 -9 -9 -9 -9 -9 -9
-10 -11 -13 -14 -14 -13 -13 -13 -12 -12 -11 -11 -11 -11 -10 -10 -10 -10 -10 -10 -9 -9 -9 -9 -9 -10 -10 -10 -11 -9 -10 -10 -10 -11 -10 -10 -10 -10 -10 -10 -9 -9 -9
-11 -12 -13 -13 -13 -13 -13 -13 -12 -12 -11 -11 -11 -11 -11 -11 -10 -10 -10 -10 -10 -10 -11 -11 -11 -11 -11 -12 -10 -9 -9 -10 -10 -11 -11 -11 -11 -11 -11 -11 -11 -11 -11
-11 -12 -12 -13 -13 -13 -13 -12 -12 -12 -12 -11 -11 -11 -11 -11 -11 -11 -11 -11 -11 -12 -12 -12 -12 -12 -12 -11 -11 -10 -10 -11 -11 -11 -11 -12 -11 -11 -11 -11 -11 -10 -10
-11 -12 -12 -13 -13 -13 -13 -12 -12 -12 -12 -12 -12 -12 -11 -11 -11 -12 -12 -12 -12 -12 -12 -12 -12 -12 -12 -12 -11 -11 -11 -11 -11 -12 -12 -12 -11 -11 -10 -9 -10 -10 -10
-12 -13 -13 -13 -13 -13 -13 -13 -12 -12 -12 -12 -12 -12 -12 -12 -12 -12 -12 -12 -13 -13 -13 -13 -13 -13 -13 -13 -12 -11 -11 -11 -11 -11 -12 -11 -11 -10 -9 -9 -9 -10 -10
-13 -14 -13 -14 -14 -14 -14 -12 -12 -12 -12 -12 -12 -12 -12 -12 -12 -13 -13 -13 -13 -13 -13 -14 -14 -13 -13 -13 -12 -11 -11 -11 -11 -11 -11 -12 -11 -10 -9 -9 -9 -10 -9
-13 -14 -14 -14 -14 -14 -12 -12 -12 -12 -12 -12 -12 -13 -13 -13 -13 -13 -14 -14 -14 -14 -14 -14 -14 -13 -13 -14 -13 -12 -11 -11 -11 -11 -12 -12 -11 -11 -10 -10 -10 -9 -9
-13 -14 -14 -15 -14 -13 -12 -13 -13 -13 -13 -13 -13 -13 -14 -14 -14 -14 -14 -15 -15 -15 -14 -14 -14 -14 -13 -13 -13 -13 -12 -11 -11 -11 -11 -10 -10 -10 -11 -11 -10 -10 -10
-14 -14 -14 -13 -13 -13 -13 -13 -13 -13 -13 -14 -14 -14 -14 -15 -15 -15 -15 -15 -15 -15 -14 -14 -14 -14 -13 -13 -13 -12 -12 -12 -12 -12 -12 -12 -13 -13 -12 -13 -12 -12 -12
-14 -13 -13 -13 -14 -14 -14 -14 -14 -14 -14 -15 -15 -15 -15 -15 -15 -15 -15 -15 -14 -14 -13 -13 -13 -13 -13 -13 -12 -11 -12 -12 -11 -13 -13 -14 -14 -14 -14 -14 -14 -14 -13
-13 -13 -13 -14 -14 -14 -15 -15 -15 -14 -15 -15 -15 -15 -15 -16 -15 -15 -15 -15 -14 -14 -13 -13 -13 -13 -12 -12 -12 -11 -11 -11 -12 -14 -14 -15 -15 -15 -15 -15 -15 -15 -15
Height
862 863 863 864 864 866 865 866 868 867 868 870 872 872 871 874 877 876 877 877 877 878 881 880 880 876 876 881 881 880 879 878 879 881 885 887 887 888 888 889 888 889 889
859 860 863 864 863 864 865 866 866 866 869 868 872 874 874 876 878 879 878 880 879 879 880 881 882 878 878 881 882 881 880 881 880 881 884 888 891 890 891 890 890 892 892
850 856 860 861 863 863 865 865 864 866 870 868 872 874 876 878 880 881 880 882 882 881 882 881 884 882 880 882 885 883 882 883 884 883 884 886 888 891 895 892 892 894 893
845 852 854 860 861 861 863 864 865 866 869 870 872 873 875 877 883 884 884 884 884 884 884 883 885 885 883 884 887 888 885 884 885 887 887 888 889 891 894 895 895 896 896
837 844 851 858 860 861 862 864 866 868 870 872 872 873 875 878 883 885 886 887 886 887 888 885 887 888 886 888 889 890 889 888 887 888 890 890 891 892 893 894 897 899 899
835 844 851 855 859 862 864 867 868 868 872 873 872 875 877 879 883 885 888 889 889 890 890 888 891 891 890 890 891 893 893 893 892 892 893 893 895 897 897 899 900 901 902
832 842 847 854 859 863 866 867 868 870 872 874 875 878 879 881 883 885 889 891 891 892 891 892 894 894 894 894 894 895 896 895 895 896 897 899 899 900 900 901 903 902 901
826 835 844 853 858 863 866 868 869 870 874 874 877 880 881 881 884 887 890 893 893 894 894 894 897 897 896 897 897 897 898 899 899 900 900 901 902 902 903 904 904 904 902
827 835 843 850 856 861 864 867 869 871 874 875 879 881 882 884 885 889 891 893 894 895 895 896 898 899 899 899 900 899 900 901 902 902 903 903 904 905 905 905 906 907 908
827 835 842 850 857 861 865 867 870 871 875 877 880 882 884 886 888 890 893 894 895 897 897 898 899 900 900 901 901 901 903 903 904 905 904 905 905 906 906 906 907 908 909
826 835 843 850 855 860 864 868 871 873 876 879 881 883 887 888 890 891 894 895 896 898 899 900 901 902 902 902 903 903 904 905 905 906 906 906 906 906 906 906 907 907 908
827 835 843 850 856 861 866 869 872 874 878 881 884 886 888 890 892 893 895 897 898 900 901 902 902 903 904 904 905 905 906 906 907 907 908 907 907 907 907 907 907 906 907
830 837 844 851 856 861 866 870 873 876 880 883 886 887 889 892 893 895 897 899 900 902 902 903 903 904 905 906 906 907 908 908 908 908 908 908 907 907 907 906 906 906 905
829 838 845 851 857 861 865 870 874 878 881 884 886 888 890 893 895 896 898 900 902 903 903 904 904 905 905 906 907 908 909 909 909 909 909 908 907 907 906 906 905 904 903
831 838 845 852 857 862 867 871 875 879 881 883 886 888 891 894 896 898 900 901 902 903 904 905 905 905 906 907 908 909 909 909 908 908 907 907 906 907 906 905 903 902 901
830 839 846 852 858 864 868 872 876 879 882 884 886 889 892 895 897 898 900 901 902 904 905 905 905 906 906 907 908 909 909 908 907 905 905 904 903 902 902 902 901 900 897
829 838 846 851 857 865 869 872 876 879 882 884 887 890 893 895 897 899 900 901 902 903 904 904 905 905 906 906 908 908 907 906 904 903 902 900 899 898 897 895 895 894 892
827 837 846 853 859 864 869 874 877 880 882 885 888 890 893 895 897 899 900 901 902 903 904 904 904 905 905 906 905 905 904 903 901 900 899 897 895 893 892 890 888 886 885
828 837 846 853 860 865 869 873 877 880 884 886 889 891 893 895 897 899 900 901 902 903 904 904 904 904 903 903 903 902 900 899 898 897 895 893 891 889 887 885 882 880 878
830 839 846 854 860 866 870 874 878 881 884 887 889 892 894 895 898 900 900 901 902 903 902 902 902 902 902 900 900 899 897 896 895 893 890 889 887 885 882 880 877 874 872
835 842 850 856 861 866 871 875 879 882 885 888 890 892 894 896 898 899 900 900 901 901 901 901 902 901 901 899 898 896 895 893 891 889 887 885 883 879 876 873 871 868 864
841 848 852 858 864 869 872 876 880 883 886 888 891 892 894 896 898 898 899 899 900 901 902 902 901 901 899 897 896 894 892 890 888 885 883 880 877 873 870 867 864 861 858
844 850 855 861 867 871 875 877 881 883 886 888 891 893 895 896 897 898 899 900 901 901 901 901 900 898 897 894 892 891 890 888 885 882 878 874 871 869 866 863 860 857 854
847 853 859 864 869 873 876 879 881 884 886 889 891 893 894 896 897 898 899 900 901 901 900 899 898 896 895 892 889 886 885 883 880 876 873 871 870 867 865 860 857 854 851
852 857 862 867 871 874 878 881 882 885 887 889 891 893 895 897 898 899 900 900 900 898 897 896 895 894 892 889 886 885 882 880 877 872 870 868 865 863 860 858 856 852 849
855 860 865 868 872 876 880 882 884 886 887 890 893 895 896 897 898 898 898 898 899 898 897 895 893 892 889 887 884 882 879 876 874 870 868 865 863 860 857 854 851 849 846
Wind_Speed
9 9 7 7 6 5 7 8 9 10 11 12 10 11 15 15 14 16 15 14 13 13 11 13 13 15 16 14 12 11 11 12 8 9 18 18 18 20 20 22 23 23 24
10 10 9 8 7 6 6 8 8 9 9 11 11 9 15 16 17 17 17 16 15 15 14 15 15 16 15 14 13 10 11 16 12 5 7 3 10 18 19 19 19 20 21
13 14 14 11 9 7 7 7 8 9 9 11 13 15 17 17 17 17 18 19 18 17 16 16 16 17 17 17 15 13 11 8 14 12 5 2 2 6 12 19 20 18 18
14 17 17 14 10 8 8 8 9 10 10 12 14 14 13 13 15 18 19 19 18 18 18 18 17 18 18 17 17 14 14 12 9 10 14 14 7 2 4 5 17 18 16
16 15 19 16 12 10 10 10 11 12 11 12 14 16 20 22 20 19 19 19 19 19 18 20 19 19 20 19 18 17 18 18 18 14 6 8 11 12 8 1 7 11 16
15 19 20 18 14 12 12 13 14 15 15 15 17 20 23 22 20 18 18 18 19 19 19 19 19 19 20 19 19 19 18 19 19 19 20 17 9 7 7 4 2 5 10
16 15 20 19 17 14 13 15 17 20 19 19 20 20 21 21 21 19 18 18 19 19 19 19 19 19 19 18 17 19 19 18 19 18 18 17 17 12 8 8 4 3 2
17 17 22 21 20 17 17 17 20 22 20 21 21 20 21 21 20 20 19 19 19 17 16 17 17 17 17 17 16 17 18 15 16 15 15 14 14 13 13 8 6 3 3
16 17 22 23 22 22 19 20 21 22 20 21 21 20 20 20 21 19 18 18 17 16 15 15 16 15 14 15 14 15 16 14 13 13 11 12 10 9 9 8 8 4 2
17 16 22 24 24 23 20 20 20 21 21 20 20 20 20 19 19 19 18 17 16 15 14 14 14 14 13 13 13 14 12 11 12 11 10 10 9 7 6 6 5 4 2
17 15 21 24 27 25 23 22 21 21 20 20 21 21 20 19 18 18 17 16 15 14 14 14 14 13 13 12 11 12 11 11 10 10 10 10 9 8 6 6 5 5 6
16 19 24 25 26 25 23 22 22 22 21 21 20 20 19 18 17 17 16 14 15 14 14 14 13 13 12 11 10 10 9 9 9 9 9 9 9 8 7 8 8 8 7
17 16 21 20 22 25 24 23 22 22 20 20 19 19 18 16 16 16 15 14 13 13 12 11 11 11 10 9 9 9 8 7 7 9 10 11 11 11 10 11 11 11 9
17 14 15 20 26 27 25 23 22 20 20 19 17 17 15 15 15 14 13 12 11 10 10 10 10 10 9 8 8 9 9 8 8 9 10 12 12 13 13 16 15 12 16
16 15 13 19 25 27 25 23 21 19 18 18 16 16 15 14 13 12 11 10 9 9 8 8 8 8 8 7 10 12 13 13 13 12 13 13 13 13 14 15 17 17 18
16 15 18 20 22 24 24 22 20 19 16 16 16 15 13 12 11 9 8 8 7 7 7 8 9 9 9 9 9 10 13 14 16 18 19 18 16 17 15 14 15 16 18
17 16 19 23 26 25 24 22 20 18 16 15 14 13 11 10 9 8 7 7 7 7 8 9 10 11 13 11 11 11 13 15 18 20 22 20 19 18 23 22 19 17 18
17 17 21 21 23 24 22 20 18 16 15 14 12 11 10 8 7 7 7 7 8 8 9 10 11 12 14 12 13 13 14 16 18 20 21 21 22 22 21 23 24 24 24
22 24 25 24 25 25 23 21 17 15 13 12 10 9 8 8 7 7 7 8 8 8 10 10 12 14 14 14 14 15 16 16 16 18 20 19 21 22 21 23 26 29 30
27 26 27 27 28 24 21 19 16 14 13 11 10 9 8 7 7 6 6 6 6 7 8 10 12 12 15 14 14 15 15 15 16 18 18 17 20 21 22 25 27 24 23
27 29 28 25 26 23 20 18 16 14 13 11 9 8 6 6 5 4 5 6 7 8 9 10 11 11 12 14 14 15 16 17 18 15 16 18 23 23 24 25 27 27 31
25 24 24 24 23 21 20 18 16 13 12 11 9 8 6 5 4 5 6 6 7 7 8 9 10 12 13 13 14 15 15 16 18 18 20 24 24 26 26 26 24 27 29
23 22 24 22 20 19 17 19 14 12 11 11 9 7 6 6 5 5 6 7 7 8 7 9 12 14 15 17 15 14 15 18 20 21 22 24 23 24 24 26 26 26 24
22 23 22 20 19 16 16 16 13 11 12 11 10 9 10 7 7 7 6 7 8 9 10 11 12 12 14 17 19 20 14 19 20 23 18 14 16 19 20 22 23 21 23
21 21 21 20 19 18 16 13 12 12 13 12 11 10 9 8 7 5 6 7 8 10 10 11 10 12 14 18 18 18 19 20 20 4 24 29 27 22 20 18 19 21 21
22 21 20 21 21 18 16 13 12 12 13 12 10 8 5 4 4 5 6 7 7 8 9 10 11 12 14 15 17 17 19 19 18 23 29 28 26 24 21 20 21 21 21
Wind_Direction
172 173 159 153 133 125 126 131 131 127 137 135 127 113 102 96 94 93 91 101 98 95 89 85 83 82 81 77 83 82 73 71 98 121 107 105 105 101 103 99 91 84 80
175 178 173 159 141 133 129 132 128 130 136 143 139 127 115 104 96 91 91 88 95 100 96 87 81 83 84 78 77 77 77 60 59 109 121 112 99 88 95 93 83 75 83
178 180 177 165 151 139 135 129 129 132 139 134 136 131 120 106 96 91 92 86 88 93 95 93 87 82 81 75 69 74 78 88 65 72 92 124 142 119 78 86 76 69 76
177 174 170 162 151 138 138 133 133 134 144 151 154 155 147 119 103 98 94 93 90 87 92 91 88 85 82 80 75 73 79 88 84 83 76 72 77 84 157 67 62 65 74
169 166 164 160 144 141 134 127 127 128 136 146 145 140 128 121 115 106 99 93 90 88 89 90 90 86 83 80 82 81 77 80 80 77 88 78 61 61 62 62 1 63 73
161 157 147 139 134 129 130 127 121 115 124 130 127 130 125 117 116 114 104 96 92 88 87 89 87 86 84 81 79 81 82 79 81 79 74 73 64 39 46 55 16 9 55
145 140 136 135 136 137 135 127 124 115 120 121 123 124 124 127 122 117 111 105 97 89 84 89 88 85 86 84 83 81 77 75 74 74 74 75 67 62 67 59 29 1 4
148 142 141 142 145 144 140 133 124 119 123 123 122 126 128 126 121 119 116 107 98 93 92 90 92 90 87 87 83 81 77 74 75 72 70 70 64 57 53 59 29 357 330
144 138 139 145 145 145 139 131 126 125 131 130 131 127 125 124 120 120 116 110 106 99 93 90 90 90 87 83 82 81 77 74 71 68 64 62 60 58 56 53 47 37 354
136 135 133 133 139 135 129 129 131 133 137 134 131 127 124 123 121 118 111 107 102 98 94 88 85 85 83 80 77 75 72 68 63 56 52 49 46 46 42 34 28 34 15
136 134 129 130 137 142 146 139 138 138 133 132 129 126 122 120 118 113 108 103 101 95 91 85 83 80 78 75 72 70 64 58 54 45 38 36 27 27 20 11 1 349 338
135 133 133 133 134 137 140 139 137 134 132 131 129 124 122 119 115 109 104 101 96 92 87 83 79 74 69 67 64 59 52 44 35 26 16 11 5 4 354 344 342 329 323
133 132 134 136 135 139 143 141 138 134 136 136 131 125 121 119 113 108 105 100 94 87 82 76 69 63 57 56 52 42 33 25 19 5 356 350 345 340 337 335 328 321 313
140 137 132 133 142 147 146 144 141 142 141 137 131 126 122 118 114 109 105 99 90 81 72 64 57 51 45 43 37 25 15 6 353 346 340 338 335 330 334 328 323 315 311
144 142 137 134 137 145 146 146 145 145 143 137 131 124 120 118 114 109 101 92 81 71 62 52 41 35 27 18 5 354 347 345 340 334 328 322 317 307 306 305 304 304 301
142 135 133 131 138 149 151 148 144 141 141 133 125 123 121 117 110 102 92 81 68 59 48 36 27 19 11 357 342 330 325 324 321 320 320 315 306 301 301 301 296 291 295
144 142 145 145 151 157 156 152 147 141 137 130 125 123 119 112 102 91 80 67 56 45 32 22 9 2 358 350 338 326 316 311 310 312 316 314 309 302 301 302 296 293 287
145 142 143 143 150 154 155 149 145 140 134 129 125 122 116 107 97 82 66 53 40 26 13 5 1 351 348 336 330 324 316 315 312 311 313 311 308 308 305 301 298 297 296
134 135 139 141 147 153 152 145 137 132 129 124 121 118 110 98 83 69 56 40 24 12 6 3 353 342 346 338 329 325 322 317 313 312 314 310 307 307 303 294 286 285 289
131 133 136 140 145 147 143 139 135 131 123 119 114 105 96 82 66 51 39 28 14 4 356 349 351 346 338 342 335 330 327 319 314 304 298 301 309 306 302 298 298 293 288
125 129 135 138 143 142 141 133 127 117 117 116 111 103 93 75 72 55 22 18 17 8 9 2 357 350 346 334 332 330 325 320 314 320 322 312 307 306 303 300 295 292 293
125 130 126 131 138 139 136 126 120 127 123 118 112 106 97 91 63 47 42 34 23 18 11 6 8 4 357 348 334 331 329 326 326 319 312 303 298 294 300 309 311 307 304
125 127 126 128 134 132 132 122 124 127 121 117 112 104 92 86 66 47 46 43 29 22 16 351 340 347 349 346 337 323 331 330 326 317 312 315 317 316 315 314 306 308 313
123 127 127 124 125 122 128 124 125 124 123 114 104 96 90 70 66 62 51 38 10 348 333 331 330 336 335 336 330 325 335 330 325 319 329 357 350 341 335 334 341 339 318
128 130 126 124 119 125 120 118 120 125 115 108 102 87 84 73 57 41 21 1 344 326 334 337 336 330 323 321 322 332 330 325 323 13 340 341 341 336 333 329 325 322 318
128 124 123 120 123 123 119 114 113 116 115 105 105 87 78 57 24 5 15 17 357 346 338 334 329 328 323 322 325 328 328 333 334 335 338 332 329 326 322 319 318 317 319